FENGYUN 1C DEB, 41008

Orbit data source: Space-Track

FENGYUN 1C DEB, 41008 is space debris in SSO originally from a launch on Mon, 10 May 1999 UTC launched from the Taiyaun Space Center, China (TSC). Fengyun 1C debris stems from the Chinese weather satellite Fengyun-1C, which was intentionally destroyed by a Chinese anti-satellite missile in 2007. This event dramatically increased the amount of space debris, with thousands of trackable fragments posing hazards to satellites and human spaceflight. The Fengyun 1C debris cloud has become a focal point in discussions about space sustainability and the need for international regulations to prevent the creation of new debris.

Loading next visibility...
Identifier
41008, 1999-025EXN
Orbit
SSO
Country
Flag of CNCN / PRC
Related business
Manufacturer
Unknown
Mission
Spacecraft
Bus & Motor
Unknown
Mass
Unknown
Launch date (UTC)
1999-05-10 (27 years ago)
Launch vehicle
Unknown
Launch site
Taiyaun Space Center, China (TSC)
Object type
Payload
Rocket body
Debris
Shape & HBR
Unknown shape, 0.1 m
Radar Cross Section
Small (<0.1 m²)

Expand to show TLE details & history
Last TLE update: 5 days ago

TLE from 5 days ago
0 FENGYUN 1C DEB
1 41008U 99025EXN 26165.67321420  .00000329  00000-0  20925-3 0  9998
2 41008  99.3401 315.3348 0501546  42.6459 321.2504 13.61408580589475
Epoch: 2026-06-14T16:09Z
TLE epoch observation values (Epoch: 2026-06-14T16:09:25.706Z)
Latitude
-0.00001°
Longitude
170.00711°
Altitude
751.296 km
Speed
7.62 km/s
True Right ascension
21h 01m 20s
True Declination
0° 00' 00"
Sunlit
Object was in full shadow at epoch
Visualization orbit readout
Latitude
Unknown
Longitude
Unknown
Altitude
Unknown
Speed
Unknown
Apparent Right ascension
Unknown
Apparent Declination
Unknown
Sunlit
N/A
Visualization observer readout
Local Sidereal Time
06:19:16
Azimuth
Unknown
Elevation
Unknown
Doppler factor
Unknown
Orbital elements
Apogee altitude
1,399.278 km
Perigee altitude
656.391 km
Semi-major axis
7,405.972 km
Eccentricity
0.05015
Inclination
99.3401°
RAAN
315.3348°
Arg. of periapsis
42.6459°
True anomaly
317.4713°
Mean anomaly
321.2504°
Eccentric anomaly
319.37953°
Mean motion
3.40542 °/min
Orbital period
105.71 mins
BSTAR
0.00020925
Loading maneuver chart data...
Computing Atmospheric mass density...

Documentation

Showing up to 5 results
|